• în România
  • Lista ţărilor
  • Pe 7 zile
  • Temperatura apei
  • Hartă satelitară
  • Meteo pe hartă
  • Widget-uri
  • user-avatar
    Intrare

    Meteo pe oră la Batina

    Astăzi, 28 Februarie, Marţi

    Timp Temperatura Precipitaţii Vânt Presiune Umiditate
    00:00 +5°C° 0 mm 2 m/s 669 mmHg 65%
    01:00 +5°C° 0 mm 2 m/s 669 mmHg 65%
    02:00 +5°C° 0 mm 2 m/s 669 mmHg 65%
    03:00 +5°C° 0 mm 2 m/s 669 mmHg 65%
    04:00 +4°C° 0 mm 2 m/s 668 mmHg 67%
    05:00 +4°C° 0 mm 2 m/s 668 mmHg 68%
    06:00 +4°C° 0 mm 2 m/s 668 mmHg 69%
    07:00 +7°C° 0 mm 2 m/s 669 mmHg 59%
    08:00 +9°C° 0 mm 2 m/s 670 mmHg 48%
    09:00 +13°C° 0 mm 2 m/s 671 mmHg 38%
    10:00 +13°C° 0 mm 3 m/s 671 mmHg 34%
    11:00 +16°C° 0 mm 3 m/s 671 mmHg 30%
    12:00 +17°C° 0 mm 4 m/s 671 mmHg 26%
    13:00 +17°C° 0 mm 4 m/s 671 mmHg 26%
    14:00 +17°C° 0 mm 4 m/s 671 mmHg 26%
    15:00 +17°C° 0 mm 4 m/s 670 mmHg 25%
    16:00 +14°C° 0 mm 4 m/s 670 mmHg 32%
    17:00 +12°C° 0 mm 3 m/s 669 mmHg 38%
    18:00 +10°C° 0 mm 2 m/s 669 mmHg 44%
    19:00 +9°C° 0 mm 2 m/s 669 mmHg 47%
    20:00 +8°C° 0 mm 2 m/s 669 mmHg 50%
    21:00 +7°C° 0 mm 2 m/s 669 mmHg 53%
    22:00 +7°C° 0 mm 2 m/s 669 mmHg 56%
    23:00 +7°C° 0 mm 2 m/s 669 mmHg 58%

    Mâine, 1 Martie, Miercuri

    Timp Temperatura Precipitaţii Vânt Presiune Umiditate
    00:00 +6°C° 0 mm 2 m/s 669 mmHg 60%
    01:00 +7°C° 0 mm 1 m/s 669 mmHg 63%
    02:00 +6°C° 0 mm 1 m/s 669 mmHg 67%
    03:00 +6°C° 0 mm 1 m/s 669 mmHg 71%
    04:00 +5°C° 0 mm 1 m/s 669 mmHg 73%
    05:00 +5°C° 0 mm 1 m/s 669 mmHg 75%
    06:00 +4°C° 0 mm 1 m/s 669 mmHg 78%
    07:00 +7°C° 0 mm 1 m/s 670 mmHg 68%
    08:00 +10°C° 0 mm 1 m/s 671 mmHg 58%
    09:00 +13°C° 0 mm 2 m/s 673 mmHg 49%
    10:00 +14°C° 0 mm 2 m/s 673 mmHg 43%
    11:00 +15°C° 0 mm 1 m/s 673 mmHg 38%
    12:00 +18°C° 0 mm 1 m/s 673 mmHg 33%
    13:00 +17°C° 0 mm 2 m/s 673 mmHg 33%
    14:00 +17°C° 0 mm 2 m/s 673 mmHg 32%
    15:00 +17°C° 0 mm 2 m/s 673 mmHg 32%
    16:00 +15°C° 0 mm 2 m/s 673 mmHg 41%
    17:00 +13°C° 0 mm 2 m/s 672 mmHg 50%
    18:00 +10°C° 0 mm 2 m/s 672 mmHg 59%
    19:00 +10°C° 0 mm 1 m/s 672 mmHg 63%
    20:00 +9°C° 0 mm 1 m/s 672 mmHg 68%
    21:00 +8°C° 0 mm 1 m/s 672 mmHg 72%
    22:00 +8°C° 0 mm 1 m/s 672 mmHg 71%
    23:00 +8°C° 0 mm 1 m/s 672 mmHg 70%

    Poimâine, 2 Martie, Joi

    Timp Temperatura Precipitaţii Vânt Presiune Umiditate
    00:00 +7°C° 0 mm 1 m/s 672 mmHg 69%
    01:00 +7°C° 0 mm 1 m/s 672 mmHg 66%
    02:00 +7°C° 0 mm 1 m/s 671 mmHg 64%
    03:00 +7°C° 0 mm 1 m/s 671 mmHg 61%
    04:00 +7°C° 0 mm 1 m/s 671 mmHg 60%
    05:00 +5°C° 0 mm 2 m/s 671 mmHg 60%
    06:00 +5°C° 0 mm 2 m/s 671 mmHg 59%
    07:00 +8°C° 0 mm 2 m/s 672 mmHg 51%
    08:00 +12°C° 0 mm 2 m/s 673 mmHg 43%
    09:00 +14°C° 0 mm 2 m/s 674 mmHg 36%
    10:00 +16°C° 0 mm 3 m/s 674 mmHg 32%
    11:00 +17°C° 0 mm 3 m/s 674 mmHg 29%
    12:00 +18°C° 0 mm 3 m/s 674 mmHg 25%
    13:00 +18°C° 0 mm 3 m/s 673 mmHg 25%
    14:00 +19°C° 0 mm 3 m/s 673 mmHg 25%
    15:00 +19°C° 0 mm 3 m/s 672 mmHg 24%
    16:00 +16°C° 0 mm 3 m/s 672 mmHg 31%
    17:00 +14°C° 0 mm 2 m/s 671 mmHg 37%
    18:00 +12°C° 0 mm 2 m/s 671 mmHg 44%
    19:00 +10°C° 0 mm 2 m/s 671 mmHg 47%
    20:00 +9°C° 0 mm 2 m/s 671 mmHg 50%
    21:00 +9°C° 0 mm 2 m/s 671 mmHg 54%
    22:00 +8°C° 0 mm 2 m/s 671 mmHg 54%
    23:00 +8°C° 0 mm 2 m/s 670 mmHg 54%

    3 Martie, Vineri

    Timp Temperatura Precipitaţii Vânt Presiune Umiditate
    00:00 +8°C° 0 mm 2 m/s 670 mmHg 54%
    01:00 +8°C° 0 mm 2 m/s 670 mmHg 54%
    02:00 +8°C° 0 mm 2 m/s 669 mmHg 53%
    03:00 +7°C° 0 mm 2 m/s 669 mmHg 52%
    04:00 +7°C° 0 mm 2 m/s 669 mmHg 52%
    05:00 +7°C° 0 mm 2 m/s 669 mmHg 51%
    06:00 +7°C° 0 mm 3 m/s 668 mmHg 50%
    07:00 +10°C° 0 mm 3 m/s 669 mmHg 43%
    08:00 +12°C° 0 mm 4 m/s 670 mmHg 36%
    09:00 +15°C° 0 mm 5 m/s 671 mmHg 28%
    10:00 +16°C° 0 mm 6 m/s 671 mmHg 27%
    11:00 +17°C° 0 mm 6 m/s 671 mmHg 25%
    12:00 +18°C° 0 mm 7 m/s 670 mmHg 23%
    13:00 +19°C° 0 mm 6 m/s 670 mmHg 23%
    14:00 +19°C° 0 mm 6 m/s 669 mmHg 24%
    15:00 +19°C° 0 mm 6 m/s 669 mmHg 24%
    16:00 +16°C° 0 mm 5 m/s 668 mmHg 28%
    17:00 +14°C° 0 mm 4 m/s 668 mmHg 32%
    18:00 +11°C° 0 mm 3 m/s 667 mmHg 36%
    19:00 +11°C° 0 mm 3 m/s 667 mmHg 37%
    20:00 +10°C° 0 mm 3 m/s 668 mmHg 38%
    21:00 +10°C° 0 mm 3 m/s 668 mmHg 39%
    22:00 +10°C° 0 mm 3 m/s 668 mmHg 40%
    23:00 +9°C° 0 mm 3 m/s 668 mmHg 40%

    4 Martie, Sâmbătă

    Timp Temperatura Precipitaţii Vânt Presiune Umiditate
    00:00 +9°C° 0 mm 2 m/s 668 mmHg 41%
    01:00 +8°C° 0 mm 2 m/s 667 mmHg 43%
    02:00 +8°C° 0 mm 2 m/s 667 mmHg 45%
    03:00 +8°C° 0 mm 1 m/s 666 mmHg 46%
    04:00 +8°C° 0 mm 1 m/s 666 mmHg 47%
    05:00 +7°C° 0 mm 1 m/s 666 mmHg 47%
    06:00 +7°C° 0 mm 1 m/s 666 mmHg 47%
    07:00 +9°C° 0 mm 2 m/s 667 mmHg 40%
    08:00 +12°C° 0 mm 3 m/s 668 mmHg 33%
    09:00 +16°C° 0 mm 3 m/s 668 mmHg 27%
    10:00 +16°C° 0 mm 5 m/s 668 mmHg 25%
    11:00 +19°C° 0 mm 6 m/s 668 mmHg 23%
    12:00 +20°C° 0 mm 8 m/s 667 mmHg 21%
    13:00 +20°C° 0 mm 8 m/s 666 mmHg 21%
    14:00 +18°C° 0 mm 9 m/s 666 mmHg 22%
    15:00 +18°C° 0 mm 9 m/s 665 mmHg 22%
    16:00 +16°C° 0 mm 9 m/s 664 mmHg 25%
    17:00 +15°C° 0 mm 9 m/s 663 mmHg 28%
    18:00 +13°C° 0 mm 8 m/s 662 mmHg 31%
    19:00 +13°C° 0,1 mm 9 m/s 663 mmHg 34%
    20:00 +12°C° 0,1 mm 9 m/s 663 mmHg 36%
    21:00 +12°C° 0,1 mm 10 m/s 664 mmHg 39%
    22:00 +10°C° 0,8 mm 8 m/s 663 mmHg 49%
    23:00 +6°C° 0,8 mm 7 m/s 663 mmHg 59%

    5 Martie, Duminică

    Timp Temperatura Precipitaţii Vânt Presiune Umiditate
    00:00 +5°C° 0,8 mm 5 m/s 663 mmHg 69%
    01:00 +3°C° 0,7 mm 5 m/s 663 mmHg 69%
    02:00 +3°C° 0,7 mm 5 m/s 663 mmHg 70%
    03:00 +3°C° 0,7 mm 4 m/s 663 mmHg 70%
    04:00 +1°C° 0 mm 4 m/s 663 mmHg 72%
    05:00 +1°C° 0 mm 4 m/s 663 mmHg 73%
    06:00 0°C° 0 mm 4 m/s 663 mmHg 75%
    07:00 +1°C° 0 mm 5 m/s 663 mmHg 71%
    08:00 +2°C° 0 mm 6 m/s 663 mmHg 66%
    09:00 +2°C° 0 mm 8 m/s 664 mmHg 62%
    10:00 +4°C° 0,1 mm 8 m/s 664 mmHg 59%
    11:00 +5°C° 0,1 mm 9 m/s 663 mmHg 56%
    12:00 +6°C° 0,1 mm 9 m/s 663 mmHg 53%
    13:00 +6°C° 0 mm 10 m/s 663 mmHg 54%
    14:00 +7°C° 0 mm 10 m/s 663 mmHg 54%
    15:00 +7°C° 0 mm 10 m/s 663 mmHg 54%
    16:00 +6°C° 0,1 mm 9 m/s 664 mmHg 60%
    17:00 +5°C° 0,1 mm 8 m/s 664 mmHg 65%
    18:00 +4°C° 0,1 mm 6 m/s 665 mmHg 71%
    19:00 +3°C° 0,1 mm 6 m/s 665 mmHg 74%
    20:00 +2°C° 0,1 mm 5 m/s 665 mmHg 77%
    21:00 +1°C° 0,1 mm 4 m/s 666 mmHg 80%
    22:00 +2°C° 0 mm 3 m/s 666 mmHg 80%
    23:00 +1°C° 0 mm 3 m/s 666 mmHg 79%
    Arată mai mult